STARLINK-32838, 62827

Orbit data source: Space-Track

STARLINK-32838, 62827 is a payload satellite owned by SpaceX/Seattle (US) in LEO that was launched on Fri, 24 Jan 2025 UTC via an FALCON 9 launch vehicle from the Air Force Western Test Range (AFWTR). Payload-class satellites include a variety of spacecraft equipped with specific instruments for various scientific and technological missions. These include communications satellites like Starlink; space stations such as the ISS; scientific satellites like the Hubble; Earth observation satellites from companies like Planet Labs, Umbra, and HawkEye 360; GPS; miniature CubeSats for education and research; and military/defense satellites.

Loading next visibility...
Identifier
62827, 2025-018X
Orbit
LEO
Country
Flag of USUS
Related business
Manufacturer
SpaceX/Seattle
Mission
Operational Commercial Communications
Bus & Motor
STARLINK V2M, Unknown motor
Mass
730 kg wet, ~700 kg dry
Launch date (UTC)
2025-01-24 (10 months ago)
Launch vehicle
FALCON 9
Launch site
Air Force Western Test Range (AFWTR)
Object type
Payload
Rocket body
Debris
Shape & HBR
Box + 2 Pan, 17.7 m
Radar Cross Section
33.884 m², Large (>1 m²)

Expand to show TLE details & history
Last TLE update: 1 day ago

TLE from 1 day ago
0 STARLINK-32838
1 62827U 25018X   25312.73581306  .00049946  00000-0  16847-2 0  9997
2 62827  53.1577 113.1271 0001382 109.6361 250.4789 15.30247470 45187
Epoch: 2025-11-08T17:39Z
TLE epoch observation values (Epoch: 2025-11-08T17:39:34.248Z)
Latitude
-0.00001°
Longitude
160.07324°
Altitude
476.289 km
Speed
7.629 km/s
True Right ascension
07h 32m 30s
True Declination
0° 00' 00"
Sunlit
Object was in daylight at epoch
Visualization orbit readout
Latitude
Unknown
Longitude
Unknown
Altitude
Unknown
Speed
Unknown
Apparent Right ascension
Unknown
Apparent Declination
Unknown
Sunlit
N/A
Visualization observer readout
Local Sidereal Time
16:22:57
Azimuth
Unknown
Elevation
Unknown
Doppler factor
Unknown
Orbital elements
Apogee altitude
476.277 km
Perigee altitude
474.383 km
Semi-major axis
6,853.467 km
Eccentricity
0.00014
Inclination
53.1577°
RAAN
113.1271°
Arg. of periapsis
109.6361°
True anomaly
250.46397°
Mean anomaly
250.4789°
Eccentric anomaly
250.47144°
Mean motion
3.82541 °/min
Orbital period
94.11 mins
BSTAR
0.0016847
Loading maneuver chart data...
Computing Atmospheric mass density...
Loading historical data...
Loading historical data...
Loading historical data...
Loading historical data...
Loading historical data...
Loading historical data...
Loading historical data...

Documentation

Showing up to 5 results
|